Regional Weather Roundup
Issued by NWS

Home | Current Version | Previous Version | Graphics & Text | Print | Product List | Glossary On
Versions: 1 2 3 4 5 6 7 8 9 10 11 12 13 14 15 16 17 18 19 20 21 22 23 24 25 26 27 28 29 30 31 32 33 34 35 36 37 38 39 40 41 42 43 44 45 46 47 48 49 50
000
ASUS43 KLMK 090910
RWRKY
KENTUCKY REGIONAL WEATHER ROUNDUP
NATIONAL WEATHER SERVICE LOUISVILLE KY
400 AM EST TUE FEB 09 2016

NOTE "FAIR" INDICATES FEW OR NO CLOUDS BELOW 12,000 FEET
WITH NO SIGNIFICANT WEATHER AND/OR OBSTRUCTIONS TO VISIBILITY.

KYZ001>023-026-027-061>063-070>075-091000-
WESTERN AND SOUTH CENTRAL KENTUCKY

CITY           SKY/WX    TMP DP  RH WIND       PRES   REMARKS
PADUCAH        FLURRIES  26  19  74 N6        29.88F WCI  19
HENDERSON      CLOUDY    21  14  73 W13       29.86F WCI   9
OWENSBORO      FLURRIES  21  16  79 W13       29.85F WCI   9
HOPKINSVILLE   FLURRIES  24  19  79 NW6       29.85F WCI  17
BOWLING GREEN  CLOUDY    23  18  81 W8        29.85F WCI  14
GLASGOW        CLOUDY    22  15  75 W10       29.83S WCI  11
$$

KYZ024-025-028>034-038-045-046-053-091000-
NORTH CENTRAL KENTUCKY

CITY           SKY/WX    TMP DP  RH WIND       PRES   REMARKS
LOUISVILLE/SDF FLURRIES  22  15  75 W13       29.80S WCI  10
LOUISVILLE/LOU CLOUDY    22  15  75 W9        29.80S WCI  12
FORT KNOX      FLURRIES  21  15  79 W8        29.77F WCI  11
$$

KYZ035>037-039>044-047>052-055>060-089>105-091000-
NORTHEAST KENTUCKY

CITY           SKY/WX    TMP DP  RH WIND       PRES   REMARKS
LEXINGTON      CLOUDY    20  13  74 W10       29.75S WCI   9
COVINGTON      LGT SNOW  21  16  81 W10       29.71S WCI  10
FRANKFORT      CLOUDY    20  13  74 W5        29.75F WCI  13
$$

KYZ054-064>069-076>088-106>120-091000-
SOUTHEAST KENTUCKY

CITY           SKY/WX    TMP DP  RH WIND       PRES   REMARKS
JACKSON        LGT SNOW  23  18  81 VRB6      29.69F WCI  16
LONDON         CLOUDY    22  16  78 W8        29.74F WCI  12
SOMERSET       LGT SNOW  21  18  86 W9        29.80S WCI  11
MIDDLESBORO    LGT SNOW  26  20  81 NW12      29.75S WCI  15
MONTICELLO     FLURRIES  22  17  81 W8        29.80F WCI  12
$$





USA.gov is the U.S. government's official web portal to all federal, state and local government web resources and services.